Wind_Speed
34 34 34 34 34 35 36 37 38 37 37 36 36 36 36 36 36 37 38 39 40 40 40 40 41 41 41 42 42 44 45 45 46 47 48 48 49 49 50 51 52 52 53 53
34 34 35 35 34 35 35 36 37 37 37 35 35 35 36 36 36 36 37 38 39 39 39 40 40 40 41 42 43 44 44 45 46 47 48 49 50 51 51 52 53 53 54 55
35 34 35 35 33 34 35 35 35 36 35 34 35 35 35 35 36 37 37 38 38 38 39 39 40 40 41 42 43 44 44 45 46 48 49 50 50 51 52 53 54 55 55 56
36 36 37 35 33 34 34 34 33 34 34 34 35 35 35 36 36 37 37 37 38 38 39 39 40 40 41 42 43 44 44 45 46 47 49 50 51 51 52 53 54 55 56 57
36 37 38 34 34 34 34 33 33 34 34 34 34 35 36 37 37 37 37 38 38 38 39 39 40 41 41 42 42 43 44 45 46 47 48 49 50 51 52 53 54 55 56 57
37 38 38 34 34 34 35 35 34 35 35 35 35 36 36 37 37 37 38 38 39 39 39 40 40 41 42 42 43 44 44 45 46 47 48 49 50 51 52 53 54 55 56 57
36 37 37 35 35 35 35 35 34 34 35 35 36 37 38 38 38 38 39 39 39 40 40 42 42 42 43 43 44 44 45 45 46 47 48 49 50 51 52 53 53 54 55 56
36 37 37 35 36 36 37 36 36 36 37 37 37 38 38 39 39 39 40 40 40 40 41 42 42 43 43 43 44 45 46 47 47 48 49 49 50 51 51 52 53 54 55 55
36 36 36 35 36 37 37 37 38 38 38 39 38 38 39 40 40 40 40 40 41 41 42 42 42 43 43 44 45 46 47 47 48 49 50 50 51 51 52 52 53 53 54 54
38 37 37 37 37 38 38 38 38 39 39 39 39 39 41 41 42 42 42 42 42 42 42 43 43 43 44 45 45 46 47 47 48 49 50 51 51 52 52 52 53 53 53 54
37 37 38 38 39 39 39 38 38 39 40 40 40 41 42 43 42 42 42 42 42 42 42 43 43 43 44 44 45 46 46 47 48 48 49 50 51 51 52 52 53 53 54 54
37 37 39 39 39 40 39 39 39 40 40 40 41 42 42 42 42 41 41 42 42 42 42 42 43 43 44 44 45 45 46 46 46 47 47 48 49 50 51 52 52 52 53 54
38 39 40 39 39 40 40 41 41 41 40 41 41 41 41 41 40 40 41 41 40 40 40 41 42 43 44 44 45 45 45 45 46 46 47 47 48 49 49 50 50 51 52 53
38 39 39 39 39 39 40 39 39 39 40 40 40 40 40 39 39 39 39 40 40 41 41 41 42 42 43 44 44 44 45 45 46 46 46 47 47 48 48 49 49 50 50 51
37 38 38 38 38 38 39 39 39 39 39 39 40 39 39 39 39 39 40 40 40 41 41 41 41 42 43 44 44 44 44 45 45 45 46 46 46 47 47 48 48 49 49 49
36 37 38 37 37 37 38 38 39 39 40 40 40 40 39 39 40 40 40 40 40 41 41 41 42 42 43 44 44 43 44 44 45 45 45 45 45 46 47 47 48 48 48 48
36 36 37 37 38 38 38 38 38 39 39 40 40 40 40 40 40 40 40 40 41 41 42 42 42 43 44 44 44 44 44 44 44 44 45 45 46 46 46 46 46 46 46 46
36 36 37 38 38 38 38 38 38 38 39 39 39 40 40 40 40 41 41 41 41 42 42 43 43 44 44 45 45 44 44 45 45 45 46 46 46 46 46 45 45 45 45 45
37 37 38 38 38 38 38 38 38 39 39 39 39 40 40 40 40 40 41 41 41 42 42 43 43 44 44 45 45 45 45 45 45 46 46 45 45 45 45 44 44 43 43 42
37 37 37 38 38 38 38 38 38 38 38 38 38 39 39 40 40 40 40 41 41 42 42 42 43 44 44 44 44 44 44 44 44 44 44 44 43 43 42 42 41 41 41 40
37 37 37 37 37 38 38 38 38 37 37 38 38 39 39 39 40 40 40 41 41 41 41 42 43 43 43 43 43 42 42 43 42 42 42 41 41 40 40 40 40 39 39 39
37 37 37 37 37 38 38 38 38 38 38 38 39 39 40 40 40 40 41 41 41 41 42 42 43 43 43 42 42 41 41 41 41 40 40 40 40 39 39 39 38 38 37 37
37 38 38 38 38 38 37 37 37 37 38 38 39 39 39 39 40 40 40 41 41 41 42 42 42 42 42 41 41 40 40 40 40 40 39 39 39 38 38 37 37 37 36 36
38 38 38 38 38 38 37 37 37 38 38 38 38 39 39 39 40 40 40 40 41 41 41 41 41 41 41 40 40 39 39 39 39 38 38 38 37 37 36 36 36 36 36 35
39 39 39 39 38 38 38 38 38 38 38 38 38 39 39 39 39 39 39 39 39 39 40 40 40 40 39 39 38 38 38 37 37 37 36 36 35 35 35 34 34 34 34 33
39 39 39 38 38 38 38 38 38 38 38 38 38 38 38 38 38 38 38 38 38 38 38 38 38 38 37 37 37 37 36 36 36 35 35 34 34 33 33 33 33 33 32 32
38 38 38 38 37 37 37 37 37 37 37 37 37 36 36 36 36 37 37 37 37 37 37 36 36 36 35 35 35 35 35 34 34 34 33 33 33 32 32 32 32 31 31 31
Wind_Direction
292 291 290 289 288 286 284 283 284 284 283 282 281 282 283 282 281 280 280 278 277 276 275 275 273 272 271 269 268 267 266 265 265 265 264 265 264 264 264 263 263 263 264 265
292 291 289 288 288 287 285 284 285 285 284 284 282 282 282 281 280 280 281 280 278 276 275 274 274 273 272 271 270 269 268 267 266 266 266 266 265 264 263 264 264 264 264 264
292 291 289 288 290 288 287 287 287 287 287 285 283 283 282 280 280 281 282 281 279 277 276 275 274 274 274 273 272 271 270 269 268 268 267 267 266 265 264 265 265 265 265 266
294 292 289 293 292 289 288 287 288 289 289 287 286 285 283 282 283 283 283 282 281 280 280 278 276 275 275 274 273 273 272 271 270 270 269 268 268 267 266 266 265 265 265 266
291 291 292 293 292 292 290 288 288 288 289 288 287 285 283 284 284 284 283 282 282 281 280 279 278 277 277 277 276 275 274 273 272 271 271 270 269 267 267 267 267 267 266 267
291 291 293 296 293 291 291 289 289 290 288 288 288 286 285 284 285 286 285 284 283 282 280 279 279 279 278 278 278 277 276 275 274 272 271 270 270 269 269 268 268 267 268 268
291 290 291 294 292 291 289 290 290 290 290 288 288 288 287 285 285 285 286 285 284 283 282 280 280 280 280 280 279 278 277 276 275 274 273 272 271 270 270 270 269 269 269 269
290 290 292 293 292 291 290 290 289 288 288 288 288 287 286 286 286 286 287 286 285 284 284 284 283 281 281 281 280 279 278 277 276 276 275 274 273 272 272 271 271 270 270 270
289 290 291 291 291 291 290 289 288 288 287 287 288 287 287 287 287 288 288 288 287 285 285 285 284 283 282 281 281 280 278 278 277 277 276 276 275 274 274 273 272 272 271 271
289 289 289 289 290 291 291 291 290 288 287 287 288 289 288 288 288 288 289 289 288 287 286 285 285 284 284 283 282 281 280 279 279 278 277 277 277 276 275 274 273 273 272 272
291 291 289 289 290 290 290 290 290 289 288 288 288 288 288 287 288 288 289 289 288 288 287 286 286 285 285 284 283 283 282 282 281 280 279 278 277 277 277 276 275 274 274 273
292 292 291 290 289 289 290 290 290 291 291 290 290 290 289 289 289 289 289 290 289 289 288 287 286 286 286 285 285 284 284 284 283 281 280 279 279 278 278 278 277 277 277 276
292 291 291 291 290 289 289 290 291 292 292 292 292 292 291 290 290 290 290 290 290 290 289 289 288 288 287 287 286 286 285 285 284 283 282 281 280 280 279 279 279 279 278 278
294 292 291 291 291 291 290 290 291 292 292 293 293 293 292 291 291 291 291 291 291 291 291 291 290 290 289 289 288 287 287 286 285 285 284 283 282 281 281 281 280 280 280 279
295 293 293 293 292 292 291 292 292 293 294 295 295 294 293 292 291 292 292 291 292 291 291 291 291 290 290 290 290 289 288 288 287 286 286 285 284 283 283 283 282 281 281 280
296 295 295 294 294 295 295 294 293 293 294 294 294 294 293 292 292 292 292 292 292 292 291 291 291 291 291 291 291 290 290 290 289 288 287 286 286 286 286 285 284 283 282 281
298 298 297 295 295 295 295 296 295 295 295 295 295 295 294 294 293 294 294 293 292 292 292 291 291 291 291 291 291 291 291 291 290 290 289 288 287 287 287 287 286 284 283 281
300 299 299 298 297 296 296 296 297 297 297 296 296 296 295 295 295 295 295 294 293 293 293 293 293 292 292 291 291 291 291 291 291 290 290 290 289 288 288 287 286 285 283 282
300 300 299 300 299 298 298 297 297 298 297 297 296 296 296 296 296 296 296 295 295 295 295 294 294 294 294 293 293 292 291 291 291 291 291 291 290 289 288 287 286 285 284 282
300 300 300 300 301 300 300 299 298 298 297 297 297 297 297 297 297 297 296 296 297 297 296 296 296 296 295 295 294 293 293 292 292 292 292 291 290 290 288 288 286 285 284 282
300 301 301 301 301 301 300 300 299 298 298 298 299 299 299 299 299 298 298 298 298 297 297 297 297 297 296 295 295 294 294 293 293 293 292 291 291 290 288 287 287 286 284 283
301 301 301 301 301 300 300 300 299 299 299 300 300 300 300 300 300 300 300 300 299 299 299 299 298 298 297 296 295 294 294 294 294 293 292 292 291 290 289 288 287 286 285 284
299 300 300 301 301 301 301 301 300 300 301 301 301 302 302 302 301 302 302 302 301 301 300 300 299 299 298 297 296 295 294 294 294 293 293 292 291 291 290 288 287 286 285 284
299 300 300 301 302 302 301 301 301 301 301 302 302 303 303 304 304 304 304 303 303 303 302 302 302 301 300 298 297 296 295 295 295 294 293 293 292 291 291 289 287 286 286 285
299 300 301 302 302 301 301 300 301 301 301 302 303 304 304 305 305 305 305 305 305 305 305 304 304 303 301 300 299 298 297 297 296 295 295 294 293 292 292 291 290 288 286 285
300 301 301 302 302 301 301 301 301 301 302 303 303 304 305 306 307 307 307 307 307 307 307 307 306 305 303 302 301 300 299 298 297 296 295 295 294 293 293 293 292 290 288 286
300 300 301 301 301 301 302 302 302 302 302 303 304 304 306 307 308 309 309 309 309 309 309 309 308 306 305 304 303 302 301 300 298 297 296 296 295 294 293 293 293 292 289 287
Height
5607 5604 5600 5598 5596 5593 5589 5587 5584 5583 5582 5582 5579 5577 5575 5572 5569 5567 5565 5564 5562 5561 5560 5559 5558 5557 5556 5556 5555 5555 5554 5554 5554 5554 5554 5554 5554 5554 5554 5553 5553 5554 5554 5554
5598 5595 5590 5588 5587 5584 5580 5577 5574 5572 5571 5572 5569 5566 5563 5561 5558 5556 5554 5552 5551 5549 5548 5547 5546 5545 5544 5543 5542 5541 5541 5540 5540 5540 5540 5539 5539 5539 5539 5539 5538 5538 5538 5538
5587 5585 5580 5578 5579 5575 5571 5568 5565 5562 5563 5561 5558 5555 5553 5550 5548 5546 5544 5541 5539 5537 5536 5535 5533 5532 5531 5530 5529 5528 5527 5527 5526 5525 5525 5524 5524 5524 5524 5523 5523 5522 5522 5522
5575 5573 5568 5573 5569 5565 5561 5559 5556 5553 5552 5549 5547 5545 5542 5540 5537 5535 5533 5531 5528 5526 5524 5523 5521 5520 5519 5517 5516 5515 5514 5513 5511 5510 5510 5509 5508 5508 5508 5507 5507 5506 5506 5505
5565 5560 5558 5561 5559 5554 5550 5549 5547 5543 5541 5539 5536 5533 5532 5529 5526 5524 5521 5519 5517 5515 5513 5511 5509 5508 5506 5504 5503 5502 5500 5498 5497 5496 5495 5494 5493 5492 5491 5491 5490 5489 5489 5488
5555 5550 5547 5552 5548 5543 5540 5538 5537 5533 5530 5528 5524 5522 5522 5518 5515 5513 5510 5508 5505 5503 5501 5499 5497 5495 5494 5492 5490 5488 5486 5484 5483 5481 5479 5478 5477 5476 5475 5474 5473 5473 5472 5471
5545 5540 5538 5540 5536 5532 5530 5529 5526 5522 5519 5516 5514 5512 5510 5507 5504 5501 5499 5496 5493 5491 5489 5486 5484 5482 5480 5478 5476 5474 5472 5470 5468 5466 5464 5463 5462 5460 5459 5458 5457 5456 5456 5455
5535 5531 5532 5529 5525 5522 5519 5517 5514 5510 5508 5505 5502 5500 5497 5495 5492 5489 5487 5484 5481 5478 5476 5473 5471 5469 5467 5464 5462 5460 5458 5456 5453 5451 5449 5447 5445 5444 5442 5441 5440 5439 5437 5436
5526 5524 5521 5517 5514 5511 5507 5505 5502 5499 5496 5493 5490 5488 5485 5483 5480 5477 5474 5471 5468 5465 5463 5460 5457 5455 5453 5450 5448 5445 5443 5441 5438 5436 5434 5431 5430 5428 5426 5424 5423 5421 5420 5419
5514 5513 5510 5506 5502 5499 5496 5493 5490 5487 5484 5481 5478 5476 5473 5470 5467 5464 5461 5458 5455 5452 5450 5447 5444 5441 5438 5436 5433 5430 5428 5425 5423 5420 5418 5415 5413 5411 5409 5408 5406 5404 5402 5401
5503 5502 5498 5496 5492 5488 5485 5481 5478 5475 5472 5469 5466 5463 5460 5457 5454 5451 5448 5445 5442 5439 5437 5434 5430 5427 5424 5421 5418 5416 5413 5410 5408 5405 5402 5399 5397 5394 5392 5390 5388 5386 5385 5383
5493 5490 5486 5484 5480 5477 5474 5470 5467 5464 5460 5457 5454 5451 5447 5444 5441 5438 5435 5432 5429 5426 5423 5420 5417 5414 5410 5407 5404 5401 5398 5395 5392 5389 5386 5383 5381 5378 5374 5373 5370 5368 5366 5364
5481 5478 5474 5471 5468 5465 5462 5458 5455 5452 5449 5445 5441 5438 5435 5431 5428 5425 5422 5419 5416 5413 5410 5406 5403 5400 5396 5393 5390 5386 5383 5379 5376 5373 5370 5367 5364 5362 5359 5356 5353 5351 5348 5346
5469 5466 5462 5459 5456 5453 5449 5446 5443 5440 5436 5433 5429 5426 5422 5419 5416 5412 5409 5406 5403 5399 5396 5393 5389 5386 5382 5379 5375 5371 5368 5364 5361 5358 5355 5351 5348 5345 5343 5340 5338 5334 5332 5329
5458 5454 5451 5448 5444 5441 5437 5434 5431 5428 5424 5421 5417 5413 5410 5406 5403 5400 5396 5393 5389 5386 5382 5379 5376 5372 5368 5364 5361 5357 5353 5349 5346 5342 5339 5336 5333 5330 5326 5324 5321 5319 5316 5313
5448 5444 5440 5436 5433 5429 5426 5422 5419 5416 5412 5408 5405 5401 5397 5394 5390 5387 5383 5379 5376 5372 5369 5365 5362 5358 5354 5350 5346 5343 5339 5334 5331 5327 5324 5321 5317 5314 5311 5308 5305 5302 5300 5297
5437 5433 5429 5425 5422 5418 5414 5411 5407 5403 5400 5396 5392 5388 5385 5381 5377 5373 5370 5366 5362 5359 5355 5351 5347 5343 5340 5336 5332 5328 5324 5320 5316 5313 5309 5306 5302 5299 5296 5292 5289 5286 5284 5281
5426 5422 5418 5414 5410 5406 5403 5399 5395 5391 5388 5384 5380 5376 5372 5368 5365 5361 5357 5353 5349 5345 5341 5337 5333 5329 5325 5321 5317 5314 5310 5306 5302 5298 5295 5291 5287 5284 5280 5277 5274 5271 5268 5266
5415 5411 5407 5403 5399 5395 5391 5387 5383 5379 5375 5371 5368 5364 5360 5356 5352 5348 5344 5340 5336 5332 5327 5323 5319 5315 5310 5306 5303 5299 5295 5291 5288 5284 5280 5276 5272 5269 5266 5262 5259 5256 5254 5251
5405 5401 5396 5392 5388 5384 5380 5375 5371 5367 5363 5359 5355 5351 5347 5343 5339 5335 5331 5327 5322 5318 5314 5309 5305 5300 5296 5292 5288 5284 5280 5277 5273 5269 5265 5261 5258 5254 5251 5248 5245 5242 5239 5237
5394 5390 5386 5381 5377 5373 5368 5364 5360 5356 5352 5348 5344 5340 5335 5331 5326 5322 5318 5314 5309 5305 5300 5296 5291 5287 5282 5278 5274 5270 5266 5262 5258 5254 5251 5247 5244 5240 5237 5234 5231 5228 5226 5223
5384 5379 5375 5371 5366 5362 5357 5353 5349 5345 5340 5336 5332 5327 5323 5319 5314 5310 5305 5301 5296 5292 5287 5282 5278 5273 5269 5264 5260 5256 5252 5248 5244 5240 5237 5233 5230 5227 5224 5221 5218 5215 5213 5210
5373 5368 5364 5360 5355 5351 5346 5342 5337 5333 5329 5325 5320 5316 5311 5307 5302 5298 5293 5288 5283 5279 5274 5269 5264 5260 5255 5251 5247 5243 5239 5235 5231 5227 5224 5220 5217 5214 5211 5208 5205 5203 5200 5198
5361 5357 5353 5348 5344 5339 5335 5330 5326 5322 5318 5313 5309 5304 5300 5295 5291 5286 5281 5276 5271 5266 5261 5256 5251 5247 5242 5238 5233 5229 5226 5222 5218 5214 5211 5208 5204 5201 5198 5195 5193 5190 5188 5186
5350 5346 5341 5337 5332 5328 5324 5319 5315 5311 5306 5302 5298 5293 5289 5284 5279 5274 5269 5264 5259 5254 5249 5244 5239 5234 5230 5225 5221 5217 5213 5209 5205 5202 5199 5195 5192 5189 5186 5183 5181 5178 5176 5174
5338 5334 5330 5325 5321 5317 5312 5308 5304 5300 5295 5291 5286 5282 5278 5273 5268 5263 5258 5253 5248 5243 5238 5233 5227 5223 5218 5213 5209 5205 5201 5197 5193 5190 5186 5183 5180 5177 5174 5172 5169 5166 5164 5162
5326 5322 5318 5314 5310 5305 5301 5297 5293 5289 5284 5280 5276 5271 5267 5262 5257 5253 5248 5243 5237 5232 5227 5222 5217 5212 5207 5202 5198 5193 5189 5185 5181 5178 5175 5172 5169 5166 5163 5160 5158 5155 5153 5151